| time (UTC) | temp C | wind direction | speed KPH | gust KPH | rain 1hr cm | rain 24hr cm | rain mn cm | humidity % | barometer mb |
| 20260902040028 | 25 | 0.0 | 0.0 | 0.00 | 0.00 | 0.00 | 92 | 1014.6 | |
| 20260902035027 | 25 | 0.0 | 0.0 | 0.00 | 0.00 | 0.00 | 92 | 1014.5 | |
| 20260902034027 | 25 | 0.0 | 0.0 | 0.00 | 0.00 | 0.00 | 91 | 1014.3 | |
| 20260902033028 | 25 | 0.0 | 0.0 | 0.00 | 0.00 | 0.00 | 91 | 1014.3 | |
| 20260902032028 | 25 | 0.0 | 0.0 | 0.00 | 0.00 | 0.00 | 91 | 1014.2 | |
| 20260902031028 | 25 | 0.0 | 0.0 | 0.00 | 0.00 | 0.00 | 91 | 1014.1 | |
| 20260902030027 | 25 | 0.0 | 0.0 | 0.00 | 0.00 | 0.00 | 90 | 1014.1 | |
| 20260902025027 | 25 | 0.0 | 0.0 | 0.00 | 0.00 | 0.00 | 90 | 1014.2 | |
| 20260902024028 | 25 | 0.0 | 0.0 | 0.00 | 0.00 | 0.00 | 90 | 1014.3 | |
| 20260902023028 | 25 | 0.0 | 0.0 | 0.00 | 0.00 | 0.00 | 89 | 1014.2 | |
| 20260902022028 | 26 | 0.0 | 0.0 | 0.00 | 0.00 | 0.00 | 89 | 1014.0 | |
| 20260902021027 | 26 | 0.0 | 0.0 | 0.00 | 0.00 | 0.00 | 89 | 1014.0 | |
| 20260902020048 | 26 | 0.0 | 0.0 | 0.00 | 0.00 | 0.00 | 88 | 1014.0 | |
| 20260902015048 | 26 | 0.0 | 0.0 | 0.00 | 0.00 | 0.00 | 88 | 1014.0 | |
| 20260902014028 | 26 | 0.0 | 0.0 | 0.00 | 0.00 | 0.00 | 87 | 1013.7 | |
| 20260902013027 | 26 | 0.0 | 0.0 | 0.00 | 0.00 | 0.00 | 87 | 1013.6 | |
| 20260902012048 | 26 | 0.0 | 0.0 | 0.00 | 0.00 | 0.00 | 86 | 1013.4 | |
| 20260902011028 | 26 | 0.0 | 0.0 | 0.00 | 0.00 | 0.00 | 86 | 1013.3 | |
| 20260902010028 | 26 | 0.0 | 0.0 | 0.00 | 0.00 | 0.00 | 85 | 1013.1 | |
| 20260902005027 | 27 | 0.0 | 0.0 | 0.00 | 0.00 | 0.00 | 84 | 1012.9 | |
| 20260902004028 | 27 | 0.0 | 0.0 | 0.00 | 0.00 | 0.00 | 83 | 1012.7 | |
| 20260902003028 | 27 | 0.0 | 0.0 | 0.00 | 0.00 | 0.00 | 82 | 1012.6 | |
| 20260902002028 | 27 | 0.0 | 0.0 | 0.00 | 0.00 | 0.00 | 81 | 1012.5 | |
| 20260902001027 | 28 | 0.0 | 0.0 | 0.00 | 0.00 | 0.00 | 79 | 1012.5 | |
| 20260902000028 | 28 | 0.0 | 0.0 | 0.00 | 0.00 | 0.00 | 78 | 1012.5 | |
| 20260901235028 | 28 | 0.0 | 0.0 | 0.00 | 0.00 | 0.00 | 76 | 1012.6 | |
| 20260901234029 | 28 | 0.0 | 0.0 | 0.00 | 0.00 | 0.00 | 76 | 1012.5 | |
| 20260901233028 | 29 | 0.0 | 0.0 | 0.00 | 0.00 | 0.00 | 74 | 1012.6 | |
| 20260901232047 | 30 | 0.0 | 0.0 | 0.00 | 0.00 | 0.00 | 71 | 1012.5 | |
| 20260901231027 | 31 | 0.0 | 0.0 | 0.00 | 0.00 | 0.00 | 69 | 1012.6 | |
| 20260901230027 | 31 | 0.0 | 0.0 | 0.00 | 0.00 | 0.00 | 67 | 1012.7 | |
| 20260901225028 | 32 | 0.0 | 0.0 | 0.00 | 0.00 | 0.00 | 64 | 1012.8 | |
| 20260901224028 | 32 | 0.0 | 0.0 | 0.00 | 0.00 | 0.00 | 63 | 1012.9 | |
| 20260901223027 | 32 | 0.0 | 0.0 | 0.00 | 0.00 | 0.00 | 63 | 1013.0 | |
| 20260901222027 | 32 | 0.0 | 0.0 | 0.00 | 0.00 | 0.00 | 63 | 1013.0 | |
| 20260901221027 | 32 | 0.0 | 0.0 | 0.00 | 0.00 | 0.00 | 63 | 1013.1 | |
| 20260901220030 | 33 | 0.0 | 0.0 | 0.00 | 0.00 | 0.00 | 62 | 1013.1 | |
| 20260901215027 | 33 | 0.0 | 0.0 | 0.00 | 0.00 | 0.00 | 62 | 1013.1 | |
| 20260901214027 | 33 | 0.0 | 0.0 | 0.00 | 0.00 | 0.00 | 61 | 1013.1 | |
| 20260901213028 | 33 | 0.0 | 0.0 | 0.00 | 0.00 | 0.00 | 62 | 1013.1 | |
| 20260901212027 | 33 | 0.0 | 0.0 | 0.00 | 0.00 | 0.00 | 63 | 1013.1 | |
| 20260901211027 | 33 | 0.0 | 0.0 | 0.00 | 0.00 | 0.00 | 65 | 1013.1 | |
| 20260901210027 | 33 | 0.0 | 0.0 | 0.00 | 0.00 | 0.00 | 63 | 1013.2 | |
| 20260901205027 | 33 | 0.0 | 0.0 | 0.00 | 0.00 | 0.00 | 62 | 1013.2 | |
| 20260901204048 | 34 | 0.0 | 0.0 | 0.00 | 0.00 | 0.00 | 61 | 1013.3 | |
| 20260901203030 | 34 | 0.0 | 0.0 | 0.00 | 0.00 | 0.00 | 60 | 1013.4 | |
| 20260901202028 | 35 | 0.0 | 0.0 | 0.00 | 0.00 | 0.00 | 60 | 1013.6 | |
| 20260901201029 | 34 | 0.0 | 0.0 | 0.00 | 0.00 | 0.00 | 60 | 1013.7 | |
| 20260901200029 | 34 | 0.0 | 0.0 | 0.00 | 0.00 | 0.00 | 59 | 1013.7 | |
| 20260901195029 | 34 | 0.0 | 0.0 | 0.00 | 0.00 | 0.00 | 62 | 1013.8 | |
| 20260901194029 | 35 | 0.0 | 0.0 | 0.00 | 0.00 | 0.00 | 63 | 1014.0 | |
| 20260901193052 | 35 | 0.0 | 0.0 | 0.00 | 0.00 | 0.00 | 59 | 1014.2 | |
| 20260901192030 | 35 | 0.0 | 0.0 | 0.00 | 0.00 | 0.00 | 58 | 1014.3 | |
| 20260901191029 | 35 | 0.0 | 0.0 | 0.00 | 0.00 | 0.00 | 59 | 1014.3 | |
| 20260901190029 | 35 | 0.0 | 0.0 | 0.00 | 0.00 | 0.00 | 60 | 1014.3 | |
| 20260901185029 | 35 | 0.0 | 0.0 | 0.00 | 0.00 | 0.00 | 60 | 1014.3 | |
| 20260901184049 | 35 | 0.0 | 0.0 | 0.00 | 0.00 | 0.00 | 60 | 1014.3 | |
| 20260901183029 | 35 | 0.0 | 0.0 | 0.00 | 0.00 | 0.00 | 61 | 1014.3 | |
| 20260901182029 | 35 | 0.0 | 0.0 | 0.00 | 0.00 | 0.00 | 61 | 1014.3 | |
| 20260901181029 | 35 | 0.0 | 0.0 | 0.00 | 0.00 | 0.00 | 59 | 1014.5 | |
| 20260901180029 | 35 | 0.0 | 0.0 | 0.00 | 0.00 | 0.00 | 61 | 1014.4 | |
| 20260901175030 | 34 | 0.0 | 0.0 | 0.00 | 0.00 | 0.00 | 61 | 1014.4 | |
| 20260901174028 | 34 | 0.0 | 0.0 | 0.00 | 0.00 | 0.00 | 60 | 1014.5 | |
| 20260901173049 | 35 | 0.0 | 0.0 | 0.00 | 0.00 | 0.00 | 62 | 1014.6 | |
| 20260901172030 | 35 | 0.0 | 0.0 | 0.00 | 0.00 | 0.00 | 63 | 1014.5 | |
| 20260901171029 | 35 | 0.0 | 0.0 | 0.00 | 0.00 | 0.00 | 59 | 1014.4 | |
| 20260901170029 | 34 | 0.0 | 0.0 | 0.00 | 0.00 | 0.00 | 63 | 1014.5 | |
| 20260901165110 | 34 | 0.0 | 0.0 | 0.00 | 0.00 | 0.00 | 64 | 1014.7 | |
| 20260901164029 | 34 | 0.0 | 0.0 | 0.00 | 0.00 | 0.00 | 62 | 1014.8 | |
| 20260901163029 | 34 | 0.0 | 0.0 | 0.00 | 0.00 | 0.00 | 63 | 1015.1 | |
| 20260901162029 | 33 | 0.0 | 0.0 | 0.00 | 0.00 | 0.00 | 64 | 1015.1 | |
| 20260901161110 | 33 | 0.0 | 0.0 | 0.00 | 0.00 | 0.00 | 67 | 1015.2 | |
| 20260901160029 | 33 | 0.0 | 0.0 | 0.00 | 0.00 | 0.00 | 61 | 1015.3 | |
| 20260901155049 | 33 | 0.0 | 0.0 | 0.00 | 0.00 | 0.00 | 68 | 1015.3 | |
| 20260901154029 | 32 | 0.0 | 0.0 | 0.00 | 0.00 | 0.00 | 65 | 1015.5 | |
| 20260901153029 | 32 | 0.0 | 0.0 | 0.00 | 0.00 | 0.00 | 74 | 1015.5 | |
| 20260901152134 | 32 | 0.0 | 0.0 | 0.00 | 0.00 | 0.00 | 73 | 1015.8 | |
| 20260901151029 | 31 | 0.0 | 0.0 | 0.00 | 0.00 | 0.00 | 73 | 1015.9 | |
| 20260901150028 | 32 | 0.0 | 0.0 | 0.00 | 0.00 | 0.00 | 69 | 1015.9 | |
| 20260901145029 | 31 | 0.0 | 0.0 | 0.00 | 0.00 | 0.00 | 73 | 1015.9 | |
| 20260901144028 | 31 | 0.0 | 0.0 | 0.00 | 0.00 | 0.00 | 75 | 1016.0 | |
| 20260901143029 | 31 | 0.0 | 0.0 | 0.00 | 0.00 | 0.00 | 74 | 1016.0 | |
| 20260901142029 | 31 | 0.0 | 0.0 | 0.00 | 0.00 | 0.00 | 76 | 1015.9 | |
| 20260901141029 | 30 | 0.0 | 0.0 | 0.00 | 0.00 | 0.00 | 81 | 1015.8 | |
| 20260901140049 | 28 | 0.0 | 0.0 | 0.00 | 0.00 | 0.00 | 83 | 1015.8 | |
| 20260901135029 | 27 | 0.0 | 0.0 | 0.00 | 0.00 | 0.00 | 86 | 1015.9 | |
| 20260901134030 | 26 | 0.0 | 0.0 | 0.00 | 0.00 | 0.00 | 90 | 1016.0 | |
| 20260901133028 | 26 | 0.0 | 0.0 | 0.00 | 0.00 | 0.00 | 92 | 1016.2 | |
| 20260901132029 | 25 | 0.0 | 0.0 | 0.00 | 0.00 | 0.00 | 91 | 1016.2 | |
| 20260901131029 | 25 | 0.0 | 0.0 | 0.00 | 0.00 | 0.00 | 90 | 1016.2 | |
| 20260901130029 | 25 | 0.0 | 0.0 | 0.00 | 0.00 | 0.00 | 88 | 1016.2 | |
| 20260901125109 | 25 | 0.0 | 0.0 | 0.00 | 0.00 | 0.00 | 83 | 1016.2 | |
| 20260901124028 | 24 | 0.0 | 0.0 | 0.00 | 0.00 | 0.00 | 75 | 1016.3 | |
| 20260901123028 | 24 | 0.0 | 0.0 | 0.00 | 0.00 | 0.00 | 67 | 1016.1 | |
| 20260901122048 | 23 | 0.0 | 0.0 | 0.00 | 0.00 | 0.00 | 56 | 1016.1 | |
| 20260901121028 | 23 | 0.0 | 0.0 | 0.00 | 0.00 | 0.00 | 51 | 1016.1 | |
| 20260901120029 | 23 | 0.0 | 0.0 | 0.00 | 0.00 | 0.00 | 48 | 1015.9 | |
| 20260901115028 | 23 | 0.0 | 0.0 | 0.00 | 0.00 | 0.00 | 48 | 1015.9 | |
| 20260901114028 | 22 | 0.0 | 0.0 | 0.00 | 0.00 | 0.00 | 50 | 1015.8 | |
| 20260901113046 | -17 | 0.0 | 0.0 | 0.00 | 0.00 | 0.00 | |||
| 20260901112004 | -17 | 0.0 | 0.0 | 0.00 | 0.00 | 0.00 | |||
| 20260901111618 | -17 | 0.0 | 0.0 | 0.00 | 0.00 | 0.00 | |||
| 20260901111143 | -17 | 0.0 | 0.0 | 0.00 | 0.00 | 0.00 | |||
| 20260901110527 | -17 | 0.0 | 0.0 | 0.00 | 0.00 | 0.00 | |||
| 20260901105506 | -17 | 0.0 | 0.0 | 0.00 | 0.00 | 0.00 | |||
| 20260901105100 | -17 | 0.0 | 0.0 | 0.00 | 0.00 | 0.00 | |||
| 20260901104027 | -17 | 0.0 | 0.0 | 0.00 | 0.00 | 0.00 | |||
| 20260901103030 | -17 | 0.0 | 0.0 | 0.00 | 0.00 | 0.00 | |||
| 20260901102603 | -17 | 0.0 | 0.0 | 0.00 | 0.00 | 0.00 | |||
| 20260901102033 | -17 | 0.0 | 0.0 | 0.00 | 0.00 | 0.00 | |||
| 20260901101547 | -17 | 0.0 | 0.0 | 0.00 | 0.00 | 0.00 | |||
| 20260901100528 | -17 | 0.0 | 0.0 | 0.00 | 0.00 | 0.00 | |||
| 20260901100121 | -17 | 0.0 | 0.0 | 0.00 | 0.00 | 0.00 | |||
| 20260901095531 | -17 | 0.0 | 0.0 | 0.00 | 0.00 | 0.00 | |||
| 20260901095027 | -17 | 0.0 | 0.0 | 0.00 | 0.00 | 0.00 | |||
| 20260901094027 | -17 | 0.0 | 0.0 | 0.00 | 0.00 | 0.00 | |||
| 20260901093558 | -17 | 0.0 | 0.0 | 0.00 | 0.00 | 0.00 | |||
| 20260901093055 | -17 | 0.0 | 0.0 | 0.00 | 0.00 | 0.00 | |||
| 20260901092526 | -17 | 0.0 | 0.0 | 0.00 | 0.00 | 0.00 | |||
| 20260901091506 | -17 | 0.0 | 0.0 | 0.00 | 0.00 | 0.00 | |||
| 20260901091101 | -17 | 0.0 | 0.0 | 0.00 | 0.00 | 0.00 | |||
| 20260901090526 | -17 | 0.0 | 0.0 | 0.00 | 0.00 | 0.00 | |||
| 20260901090027 | -17 | 0.0 | 0.0 | 0.00 | 0.00 | 0.00 | |||
| 20260901085028 | -17 | 0.0 | 0.0 | 0.00 | 0.00 | 0.00 | |||
| 20260901084547 | -17 | 0.0 | 0.0 | 0.00 | 0.00 | 0.00 | |||
| 20260901083527 | -17 | 0.0 | 0.0 | 0.00 | 0.00 | 0.00 | |||
| 20260901082506 | -17 | 0.0 | 0.0 | 0.00 | 0.00 | 0.00 | |||
| 20260901082059 | -17 | 0.0 | 0.0 | 0.00 | 0.00 | 0.00 | |||
| 20260901081522 | -17 | 0.0 | 0.0 | 0.00 | 0.00 | 0.00 | |||
| 20260901081028 | -17 | 0.0 | 0.0 | 0.00 | 0.00 | 0.00 | |||
| 20260901080011 | -17 | 0.0 | 0.0 | 0.00 | 0.00 | 0.00 | |||
| 20260901075607 | -17 | 0.0 | 0.0 | 0.00 | 0.00 | 0.00 | |||
| 20260901074526 | -17 | 0.0 | 0.0 | 0.00 | 0.00 | 0.00 | |||
| 20260901073517 | -17 | 0.0 | 0.0 | 0.00 | 0.00 | 0.00 | |||
| 20260901073133 | -17 | 0.0 | 0.0 | 0.00 | 0.00 | 0.00 | |||
| 20260901072026 | -17 | 0.0 | 0.0 | 0.00 | 0.00 | 0.00 | |||
| 20260901071026 | -17 | 0.0 | 0.0 | 0.00 | 0.00 | 0.00 | |||
| 20260901070543 | -17 | 0.0 | 0.0 | 0.00 | 0.00 | 0.00 | 77 | ||
| 20260901070034 | 22 | 0.0 | 0.0 | 0.00 | 0.00 | 0.00 | 77 | 1015.9 | |
| 20260901065029 | 22 | 0.0 | 0.0 | 0.00 | 0.00 | 0.00 | 78 | 1015.9 | |
| 20260901064028 | 22 | 0.0 | 0.0 | 0.00 | 0.00 | 0.00 | 79 | 1016.0 | |
| 20260901063027 | 22 | 0.0 | 0.0 | 0.00 | 0.00 | 0.00 | 80 | 1016.0 | |
| 20260901062033 | 23 | 0.0 | 0.0 | 0.00 | 0.00 | 0.00 | 80 | 1016.1 | |
| 20260901061048 | 23 | 0.0 | 0.0 | 0.00 | 0.00 | 0.00 | 80 | 1016.2 | |
| 20260901060028 | 23 | 0.0 | 0.0 | 0.00 | 0.00 | 0.00 | 81 | 1016.4 | |
| 20260901055036 | 23 | 0.0 | 0.0 | 0.00 | 0.00 | 0.00 | 81 | 1016.5 | |
| 20260901054029 | 23 | 0.0 | 0.0 | 0.00 | 0.00 | 0.00 | 81 | 1016.5 | |
| 20260901053028 | 23 | 0.0 | 0.0 | 0.00 | 0.00 | 0.00 | 80 | 1016.5 | |
| 20260901052027 | 23 | 0.0 | 0.0 | 0.00 | 0.00 | 0.00 | 81 | 1016.6 | |
| 20260901051028 | 23 | 0.0 | 0.0 | 0.00 | 0.00 | 0.00 | 82 | 1016.7 | |
| 20260901050047 | 22 | 0.0 | 0.0 | 0.00 | 0.00 | 0.00 | 81 | 1016.7 | |
| 20260901045027 | 22 | 0.0 | 0.0 | 0.00 | 0.00 | 0.00 | 83 | 1016.9 | |
| 20260901044027 | 22 | 0.0 | 0.0 | 0.00 | 0.00 | 0.00 | 84 | 1016.9 | |
| 20260901043027 | 22 | 0.0 | 0.0 | 0.00 | 0.00 | 0.00 | 89 | 1016.9 | |
| 20260901042027 | 23 | 0.0 | 0.0 | 0.00 | 0.00 | 0.00 | 88 | 1016.9 | |
| 20260901041027 | 23 | 0.0 | 0.0 | 0.00 | 0.00 | 0.00 | 88 | 1016.9 |